Souda, Greece

9:59 AM EEST on May 23, 2018 (GMT +0300)
Souda Air Base

Weather History for LGSA - April, 2014

Change the Weather History Date:

Wednesday, April 16, 2014

  Actual Average Record
Temperature  
Mean Temperature 60 °F -  
Max Temperature 69 °F 72 °F 77 °F (2006)
Min Temperature 50 °F 55 °F 50 °F (1997)
Degree Days  
Heating Degree Days 6    
Growing Degree Days 10 (Base 50)    
Moisture  
Dew Point 49 °F    
Average Humidity 68    
Maximum Humidity 88    
Minimum Humidity 28    
Precipitation  
Precipitation 0.00 in 0.03 in - ()
Sea Level Pressure  
Sea Level Pressure 29.88 in    
Wind  
Wind Speed 4 mph ()    
Max Wind Speed 14 mph    
Max Gust Speed -    
Visibility 6.2 miles    
Events      
Averages and records for this station are not official NWS values.
T = Trace of Precipitation, MM = Missing Value Source: Averaged Metar Reports

Daily Weather History Graph

Daily Weather History Graph

Search for Another Location

Airport or City:

Astronomy

Apr. 16, 2014 Rise Set
Actual Time 6:50 AM EEST 7:57 PM EEST
Civil Twilight 6:23 AM EEST 8:23 PM EEST
Nautical Twilight 5:52 AM EEST 8:54 PM EEST
Astronomical Twilight 5:20 AM EEST 9:27 PM EEST
Moon 9:18 PM EEST (4/16) 7:26 AM EEST (4/16)
Length of Visible Light 13h 59m
Length of Day
13h 07m
Full, 99% of the Moon is Illuminated
Apr 16
Full
Apr 22
Last Quarter
Apr 29
New
May 7
First Quarter
May 14
Full

Hourly Weather History & Observations

Time (EEST) Temp. Dew Point Humidity Pressure Visibility Wind Dir Wind Speed Gust Speed Precip Events Conditions
12:00 AM 56 °F 49 °F 72% 29.94 in 6 mi Calm Calm - -   Scattered Clouds
12:20 AM 57.2 °F 50.0 °F 77% 29.92 in 6.2 mi Calm Calm - N/A   Partly Cloudy
12:50 AM 57.2 °F 50.0 °F 77% 29.92 in 6.2 mi NW 4.6 mph - N/A   Partly Cloudy
1:20 AM 57.2 °F 50.0 °F 77% 29.92 in 6.2 mi WNW 6.9 mph - N/A   Partly Cloudy
1:50 AM 55.4 °F 50.0 °F 82% 29.92 in 6.2 mi WNW 4.6 mph - N/A   Partly Cloudy
2:20 AM 55.4 °F 50.0 °F 82% 29.92 in 6.2 mi Calm Calm - N/A   Partly Cloudy
2:50 AM 53.6 °F 48.2 °F 82% 29.92 in 6.2 mi West 4.6 mph - N/A   Partly Cloudy
3:00 AM 53 °F 49 °F 80% 29.94 in 6 mi West 4.6 mph - -   Scattered Clouds
3:20 AM 53.6 °F 48.2 °F 82% 29.92 in 6.2 mi NW 4.6 mph - N/A   Partly Cloudy
3:50 AM 53.6 °F 48.2 °F 82% 29.92 in 6.2 mi Calm Calm - N/A   Partly Cloudy
4:20 AM 53.6 °F 48.2 °F 82% 29.92 in 6.2 mi NNW 4.6 mph - N/A   Partly Cloudy
4:50 AM 51.8 °F 48.2 °F 88% 29.89 in 6.2 mi WNW 4.6 mph - N/A   Partly Cloudy
5:20 AM 51.8 °F 48.2 °F 88% 29.89 in 6.2 mi West 4.6 mph - N/A   Partly Cloudy
5:50 AM 50.0 °F 46.4 °F 87% 29.89 in 6.2 mi Calm Calm - N/A   Scattered Clouds
6:00 AM 50 °F 46 °F 81% 29.90 in 6 mi Calm Calm - -   Scattered Clouds
6:20 AM 50.0 °F 46.4 °F 87% 29.89 in 6.2 mi Calm Calm - N/A   Scattered Clouds
6:50 AM 50.0 °F 46.4 °F 87% 29.89 in 6.2 mi Calm Calm - N/A   Mostly Cloudy
7:20 AM 50.0 °F 46.4 °F 87% 29.89 in 6.2 mi Calm Calm - N/A   Mostly Cloudy
7:50 AM 51.8 °F 46.4 °F 82% 29.89 in 6.2 mi Calm Calm - N/A   Mostly Cloudy
8:20 AM 55.4 °F 46.4 °F 72% 29.89 in 6.2 mi Variable 3.5 mph - N/A   Mostly Cloudy
8:50 AM 59.0 °F 48.2 °F 67% 29.89 in 6.2 mi Variable 2.3 mph - N/A   Scattered Clouds
9:00 AM 59 °F 49 °F 60% 29.90 in 6 mi 2.3 mph - -   Scattered Clouds
9:20 AM 60.8 °F 48.2 °F 63% 29.89 in 6.2 mi ESE 10.4 mph - N/A   Scattered Clouds
9:50 AM 62.6 °F 46.4 °F 55% 29.89 in 6.2 mi ESE 4.6 mph - N/A   Scattered Clouds
10:20 AM 62.6 °F 48.2 °F 59% 29.89 in 6.2 mi ESE 4.6 mph - N/A   Scattered Clouds
10:50 AM 64.4 °F 48.2 °F 56% 29.89 in 6.2 mi ENE 6.9 mph - N/A   Scattered Clouds
11:20 AM 64.4 °F 48.2 °F 56% 29.89 in 6.2 mi Variable 3.5 mph - N/A   Scattered Clouds
11:50 AM 66.2 °F 48.2 °F 52% 29.89 in 6.2 mi ENE 8.1 mph - N/A   Scattered Clouds
12:00 PM 66 °F 48 °F 41% 29.90 in 6 mi ENE 8.1 mph - -   Mostly Cloudy
12:50 PM 69.8 °F 46.4 °F 43% 29.89 in 6.2 mi North 6.9 mph - N/A   Scattered Clouds
1:20 PM 69.8 °F 46.4 °F 43% 29.89 in 6.2 mi NE 13.8 mph - N/A   Partly Cloudy
1:50 PM 68.0 °F 46.4 °F 46% 29.89 in 6.2 mi Variable 2.3 mph - N/A   Scattered Clouds
2:20 PM 69.8 °F 44.6 °F 40% 29.89 in 6.2 mi NNE 8.1 mph - N/A   Scattered Clouds
2:50 PM 69.8 °F 42.8 °F 38% 29.89 in 6.2 mi NNE 9.2 mph - N/A   Scattered Clouds
3:00 PM 69 °F 44 °F 28% 29.88 in 6 mi NNE 9.2 mph - -   Scattered Clouds
3:20 PM 69.8 °F 42.8 °F 38% 29.89 in 6.2 mi NNE 9.2 mph - N/A   Mostly Cloudy
3:50 PM 66.2 °F 48.2 °F 52% 29.86 in 6.2 mi NNE 11.5 mph - N/A   Mostly Cloudy
4:20 PM 66.2 °F 48.2 °F 52% 29.86 in 6.2 mi NE 11.5 mph - N/A   Mostly Cloudy
4:50 PM 66.2 °F 50.0 °F 56% 29.86 in 6.2 mi NNE 9.2 mph - N/A   Mostly Cloudy
5:20 PM 66.2 °F 50.0 °F 56% 29.86 in 6.2 mi NNE 9.2 mph - N/A   Mostly Cloudy
5:50 PM 66.2 °F 50.0 °F 56% 29.86 in 6.2 mi NNE 4.6 mph - N/A   Scattered Clouds
6:00 PM 67 °F 50 °F 45% 29.85 in 6 mi NNE 4.6 mph - -   Scattered Clouds
6:20 PM 66.2 °F 50.0 °F 56% 29.86 in 6.2 mi ENE 9.2 mph - N/A   Scattered Clouds
6:50 PM 62.6 °F 50.0 °F 63% 29.86 in 6.2 mi East 11.5 mph - N/A   Partly Cloudy
7:20 PM 62.6 °F 50.0 °F 63% 29.86 in 6.2 mi East 11.5 mph - N/A   Partly Cloudy
7:50 PM 60.8 °F 53.6 °F 77% 29.83 in 6.2 mi ENE 9.2 mph - N/A   Partly Cloudy
8:20 PM 60.8 °F 53.6 °F 77% 29.83 in 6.2 mi ENE 9.2 mph - N/A   Partly Cloudy
8:50 PM 59.0 °F 53.6 °F 82% 29.83 in 6.2 mi ESE 4.6 mph - N/A   Partly Cloudy
9:00 PM 59 °F 53 °F 76% 29.86 in 6 mi ESE 4.6 mph - -   Scattered Clouds
9:20 PM 59.0 °F 53.6 °F 82% 29.83 in 6.2 mi Calm Calm - N/A   Partly Cloudy
9:50 PM 57.2 °F 51.8 °F 82% 29.86 in 6.2 mi Calm Calm - N/A   Partly Cloudy
10:20 PM 57.2 °F 51.8 °F 82% 29.86 in 6.2 mi WNW 4.6 mph - N/A   Partly Cloudy
10:50 PM 57.2 °F 51.8 °F 82% 29.86 in 6.2 mi Calm Calm - N/A   Partly Cloudy
11:20 PM 57.2 °F 51.8 °F 82% 29.86 in 6.2 mi Calm Calm - N/A   Partly Cloudy
11:50 PM 55.4 °F 51.8 °F 88% 29.83 in 6.2 mi Calm Calm - N/A   Partly Cloudy